FENGYUN 1C DEB

Satellite information

Favourite Embed

Satellite Type and Status

DEBRISIN ORBIT

Key statistics

Satellite FENGYUN 1C DEB at a glance.

Uptime

9494

Days in orbit

Revolutions

≈ 14.2

Per day

Orbit

SSO

Sun Synchronous Orbit

Inclination

99.0

Latest

Satellite identification and parameters

Extended collection of information and parameters for FENGYUN 1C DEB.

Object identification

Identified? True

Debris? True

Object name: FENGYUN 1C DEB

International designator: 1999-025BDS

Object number (NORAD): 31024

Object ID (CCSDS): 31024

Country: PEOPLES REPUBLIC OF CHINA (PRC)

Current information (Y/N): Y

RCS size: SMALL

Orbital parameters

Period: 101.372 minutes

Inclination: 99.0488 deg

SMA: 7201.769 km

Apoapsis: 878.385 km

Periapsis: 768.883 km

RAAN: 32.4747 deg

Eccentricy: 0.0076025

Argument of periapsis: 41.112 deg

Mean anomaly: 319.575 deg

Mean motion: 14.2050897 rev/day

Mean motion (dot): 0.00001089 rev/day2

B* drag term: 0.00051333 1/REarth

Two-line elements (TLE)

Creation date: May 4, 2025, 6:36 a.m.

Reference frame: TEME

Reference center: EARTH

Epoch: May 4, 2025, 4:54 a.m. UTC

TLE line 0: 0 FENGYUN 1C DEB

TLE line 1: 1 31024U 99025BDS 25124.20421054 .00001089 00000-0 51333-3 0 9993

TLE line 2: 2 31024 99.0488 32.4747 0076025 41.1120 319.5750 14.20508970938585

Live tracking on map

Real-time ground track for satellite FENGYUN 1C DEB.

In-orbit conjunctions

A list of the most updated potential collisions computed for object FENGYUN 1C DEB.

Target Orbit TCA Probability of collision Miss distance Type
SL-18 DEB LEO 2025-02-19 03:47:33 0.0001310638 236.0 (m) DEBRIS
FENGYUN 1C DEB SSO 2024-11-12 01:43:26 0.0008019365 412.0 (m) DEBRIS

Associated space launch

Chinese polar orbiting meteorological satellite

FENGYUN 1C DEB was lifted into orbit during the mission ‘Long March 4B | Feng Yun 1C’, on board a Long March 4B space rocket.

The launch took place on May 10, 1999, 1:33 a.m. from Launch Complex 7.

For more information about the launch, click the button.

Launch to space Long March 4B | Feng Yun 1C
Long March 4B | Feng Yun 1C

Agency: N/A

Status: Launch Successful

Launch date: May 10, 1999, 1:33 a.m. UTC

Rocket: Long March 4B

Launch pad: Launch Complex 7

Location: Taiyuan Satellite Launch Center, People's Republic of China

...

Latest news about this satellite

There are no fresh news available about this satellite. Check back as we update our databases every day.


Newsletter sign-up

Weekly statistics, charts and insights to help you stay on top of the space industry.